{"data":{"norad_id":53390,"epoch":"2026-05-25T00:40:45.905376Z","epoch_age_seconds":86271,"freshness":"FRESH","line1":"1 53390U 22097C   26145.02830909 -.00000568  00000+0 -17574-4 0  9997","line2":"2 53390  53.2145 141.4221 0001212  86.8102 273.3029 15.08848843210343","mean_motion":15.08848843,"eccentricity":0.0001212,"inclination_deg":53.2145,"raan_deg":141.4221,"arg_perigee_deg":86.8102,"mean_anomaly_deg":273.3029,"bstar":-1.7574e-5,"rev_number":21034,"period_min":95.436995341223,"perigee_km":538.87791575563,"apogee_km":540.55480340999,"semimajor_km":6917.8533595828,"source":"CELESTRAK","updated_at":"2026-05-25T13:38:17.393975Z"}}